Regional Weather Roundup
Issued by NWS Charleston, SC

Current Version | Previous Version | Graphics & Text | Print | Product List | Glossary On
Versions: 1 2 3 4 5 6 7 8 9 10 11 12 13 14 15 16 17 18 19 20 21 22 23 24 25 26 27 28 29 30 31 32 33 34 35 36 37 38 39 40 41 42 43 44 45 46 47 48 49 50
000 ASUS42 KCHS 272328 RWRCHS REGIONAL WEATHER ROUNDUP NATIONAL WEATHER SERVICE CHARLESTON SC 700 PM EDT SAT AUG 27 2016 NOTE: "FAIR" INDICATES FEW OR NO CLOUDS BELOW 12,000 FEET WITH NO SIGNIFICANT WEATHER AND/OR OBSTRUCTIONS TO VISIBILITY. NOT ALL STATIONS ARE QUALITY CONTROLLED. USE DATA WITH CAUTION... ESPECIALLY DEWPOINT OBSERVATIONS. SCZ027-030-031-034>040-042>050-280000- ...SOUTHEAST SOUTH CAROLINA... CITY SKY/WX TMP DP RH WIND PRES REMARKS N CHARLESTON PTCLDY 86 68 54 SE12 30.03F WATERFRONT PRK N/A 86 76 72 E10 30.02F HX 96 MOUNT PLEASANT FAIR 82 73 74 CALM 30.04S JOHNS ISLAND FAIR 82 73 74 E9 30.03S PINOPOLIS N/A 88 72 58 VRB3 29.96S HX 94 MONCKS CORNER FAIR 82 68 61 SE7 30.04R SUMMERVILLE FAIR 88 68 51 SE5 30.04 HX 91 BEAUFORT MCAS SUNNY 85 74 69 E10 30.03S HX 92 BEAUFORT ARPT FAIR 82 73 74 E9 30.03S HILTON HEAD IS MOSUNNY 86 75 70 NE9 30.03F HX 95 WALTERBORO CLEAR 88 68 51 E6 30.04R HX 91 ALLENDALE FAIR 90 66 45 E8G14 30.01R HX 92 ...SOUTHERN MIDLANDS AND PEE DEE... CITY SKY/WX TMP DP RH WIND PRES REMARKS GEORGETOWN FAIR 81 72 74 E8 30.05S KINGSTREE FAIR 86 68 54 SE8 30.05R ORANGEBURG SUNNY 90 67 46 E8 30.03S HX 93 BARNWELL NOT AVBL AIKEN FAIR 90 66 45 E8 30.07S HX 92 MANNING FAIR 88 70 55 SE5 30.04R HX 92 COLUMBIA MOSUNNY 93 69 45 SE10 30.02R HX 98 SUMTER SUNNY 92 70 48 SE7 30.01R HX 97 FLORENCE PTCLDY 91 72 53 S9 30.04R HX 98 MYRTLE BEACH CLEAR 86 68 54 S12 30.06F N MYRTLE BEACH CLEAR 84 74 71 S8 30.04F HX 91 $$ GAZ063-065-086>088-099>101-113>116-118-119-134>141-150-280000- ...SOUTHEAST GEORGIA... CITY SKY/WX TMP DP RH WIND PRES REMARKS SAVANNAH ARPT MOSUNNY 85 71 63 E12 30.03R HX 90 HUNTER AAF PTSUNNY 82 72 70 E6 30.00S FORT STEWART SUNNY 86 73 64 E10 29.99S HX 93 STATESBORO SUNNY 90 68 48 SE6 30.02S HX 93 SYLVANIA NOT AVBL CLAXTON FAIR 87 71 58 E6 30.01S HX 92 ...CSRA...CENTRAL AND FAR SOUTHEAST GEORGIA... CITY SKY/WX TMP DP RH WIND PRES REMARKS THOMSON SUNNY 92 71 49 MISG 30.07R HX 99 AUGUSTA-BUSH SUNNY 93 67 42 SE7 30.00S HX 96 AUGUSTA-DANIEL MOSUNNY 94 68 42 E9 30.03S HX 98 SWAINSBORO FAIR 91 57 31 SE14 30.02R HX 90 VIDALIA SUNNY 90 72 55 E8 30.01R HX 96 EASTMAN FAIR 93 45 18 SE6 30.02R HAZLEHURST FAIR 91 68 47 E7 29.99R HX 95 ALMA MOSUNNY 86 72 62 E7 29.99S HX 92 WAYCROSS N/A 88 78 72 SE17 30.00S HX 101 JESUP FAIR 86 77 74 E12 30.00F HX 97 BAXLEY FAIR 88 77 70 SE7 29.99S HX 100 BRUNSWICK MOSUNNY 84 77 79 E9 30.01S HX 94 SAINT SIMONS MOSUNNY 84 74 71 E10 30.00F HX 91 $$ SCZ027-028-034-036>038-045-046-048>050-GAZ119-141-280000- ...LAKE AND SUPPLEMENTAL COASTAL OBSERVATIONS... STATION/POSITION TIME TEMP WIND PRES WAVE SWELL AIR SEA DIR/SP/G HT/PER HT/PER/DIR (UTC) (F) (DEG/KT/KT) (MB) (FT/S) (FT/S/D) WINYAH BAY 2200 83 110/ 8 1017.0F LAKE MURRAY 2300 91 130/ 7/ 11 1016.3R ACE BASIN NERRS 2200 89 100/ 3 1017.0S FORT PULASKI 2300 83 86 60/ 13/ 15 1017.1F SAPELO ISLAND 2300 86 80/ 7 1016.0S $$ ANZ835-935-AMZ111-154-330-350-352-354-370-450-454-472-280000- ...C-MAN AND BUOY OBSERVATIONS... STATION/POSITION TIME TEMP WIND PRES WAVE SWELL AIR SEA DIR/SP/G HT/PER HT/PER/DIR (UTC) (F) (DEG/KT/KT) (MB) (FT/S) (FT/S/D) BUOY 41004 2250 84 85 70/ 12/ 14 1016.1F 5/10 3/130/10 BUOY 41008 2250 84 85 80/ 14/ 16 1015.5F 4/10 2/100/10 FOLLY BEACH CMAN 2300 83 70/ 12/ 14 1017.4F CAPERS NEARSHORE 2208 83 85 70/ 10/ 14 1016.8F FRIPP NEARSHORE 2308 84 86 90/ 14/ 19 1015.9F STATION/POSITION TIME TEMP WIND PRES WAVE SWELL AIR SEA DIR/SP/G HT/PER HT/PER/DIR (UTC) (F) (DEG/KT/KT) (MB) (FT/S) (FT/S/D) 5E ST. MARYS GA 2301 84 N/A 4/11 2/120/11 FRYING PAN BUOY 2300 83 85 90/ 8/ 14 1016.5F BUOY 41025 2250 83 85 50/ 8/ 10 1017.9F 3/ 9 3/110/ 9 CAPE LOOKOUT NC 2300 83 90/ 10/ 11 1017.3F BUOY 41002 2250 83 84 60/ 14/ 16 1016.0R 4/ 8 3/110/ 8 BUOY 41010 NOT AVBL ST AUGUSTINE FL 2300 81 85 130/ 7/ 8 1015.8R $$

USA.gov is the U.S. government's official web portal to all federal, state and local government web resources and services.